Location: Peebles
(55.6412°N, 3.1714°W)
Time: 14:48:03
(UTC+01:00)

FENGYUN 1C DEB - Pass Details

Date: 08 July 2022
Orbit: 747 x 899 km, 98.5° (Epoch: 16 August)

Event Time Altitude Azimuth Distance (km) Brightness Sun altitude
Rises 22:49:51 0° 226° (SW) 3,235 ? -5.9°
Reaches altitude 10° 22:54:04 10° 260° (W) 2,291 ? -6.2°
Maximum altitude 22:55:35 11° 278° (W) 2,199 ? -6.3°
Drops below altitude 10° 22:57:06 10° 296° (WNW) 2,283 ? -6.4°
Sets 23:01:18 0° 331° (NNW) 3,207 ? -6.7°
